| time (UTC) | temp F | wind direction | speed MPH | gust MPH | rain 1hr in | rain 24hr in | rain mn in | humidity % | barometer mb |
| 20260905150051 | 85 | 120 | 1.0 | 3.0 | 0.00 | 0.00 | 0.00 | 70 | 1013.6 |
| 20260905144546 | 84 | 43 | 0.0 | 2.0 | 0.00 | 0.00 | 0.00 | 68 | 1013.5 |
| 20260905143042 | 83 | 139 | 0.0 | 3.0 | 0.00 | 0.00 | 0.00 | 73 | 1013.4 |
| 20260905141541 | 80 | 92 | 0.0 | 2.0 | 0.00 | 0.00 | 0.00 | 78 | 1013.5 |
| 20260905140040 | 79 | 126 | 1.0 | 3.0 | 0.00 | 0.00 | 0.00 | 79 | 1013.5 |
| 20260905134539 | 78 | 122 | 1.0 | 3.0 | 0.00 | 0.00 | 0.00 | 79 | 1013.5 |
| 20260905133039 | 78 | 128 | 0.0 | 2.0 | 0.00 | 0.00 | 0.00 | 82 | 1013.3 |
| 20260905131536 | 77 | 128 | 1.0 | 2.0 | 0.00 | 0.00 | 0.00 | 83 | 1013.1 |
| 20260905130036 | 76 | 76 | 1.0 | 3.0 | 0.00 | 0.00 | 0.00 | 84 | 1012.9 |
| 20260905124534 | 75 | 133 | 1.0 | 2.0 | 0.00 | 0.00 | 0.00 | 86 | 1012.9 |
| 20260905123032 | 75 | 99 | 0.0 | 2.0 | 0.00 | 0.00 | 0.00 | 88 | 1012.6 |
| 20260905121531 | 74 | 137 | 0.0 | 1.0 | 0.00 | 0.00 | 0.00 | 89 | 1012.7 |
| 20260905120032 | 74 | 97 | 0.0 | 3.0 | 0.00 | 0.00 | 0.00 | 89 | 1012.5 |
| 20260905114529 | 75 | 141 | 0.0 | 2.0 | 0.00 | 0.00 | 0.00 | 89 | 1012.1 |
| 20260905113029 | 74 | 141 | 0.0 | 0.0 | 0.00 | 0.00 | 0.00 | 88 | 1012.1 |
| 20260905111527 | 75 | 141 | 0.0 | 1.0 | 0.00 | 0.00 | 0.00 | 88 | 1012.0 |
| 20260905110027 | 75 | 141 | 0.0 | 0.0 | 0.00 | 0.00 | 0.00 | 88 | 1012.0 |
| 20260905104525 | 75 | 141 | 0.0 | 0.0 | 0.00 | 0.00 | 0.00 | 88 | 1011.8 |
| 20260905103024 | 75 | 141 | 0.0 | 2.0 | 0.00 | 0.00 | 0.00 | 88 | 1011.8 |
| 20260905101528 | 75 | 141 | 0.0 | 3.0 | 0.00 | 0.00 | 0.00 | 87 | 1011.7 |
| 20260905100051 | 75 | 141 | 0.0 | 2.0 | 0.00 | 0.00 | 0.00 | 87 | 1011.6 |
| 20260905094521 | 76 | 141 | 0.0 | 0.0 | 0.00 | 0.00 | 0.00 | 87 | 1011.7 |
| 20260905093020 | 76 | 141 | 0.0 | 2.0 | 0.00 | 0.00 | 0.00 | 87 | 1011.8 |
| 20260905091518 | 76 | 141 | 0.0 | 1.0 | 0.00 | 0.00 | 0.00 | 86 | 1011.9 |
| 20260905090018 | 77 | 141 | 0.0 | 2.0 | 0.00 | 0.00 | 0.00 | 86 | 1011.9 |
| 20260905084516 | 76 | 141 | 0.0 | 0.0 | 0.00 | 0.00 | 0.00 | 86 | 1011.8 |
| 20260905083016 | 77 | 141 | 0.0 | 0.0 | 0.00 | 0.00 | 0.00 | 86 | 1011.8 |
| 20260905081514 | 77 | 141 | 0.0 | 2.0 | 0.00 | 0.00 | 0.00 | 86 | 1011.8 |
| 20260905080014 | 78 | 141 | 0.0 | 2.0 | 0.00 | 0.00 | 0.00 | 85 | 1011.7 |
| 20260905074520 | 78 | 141 | 0.0 | 1.0 | 0.00 | 0.00 | 0.00 | 83 | 1011.7 |
| 20260905073011 | 78 | 141 | 0.0 | 0.0 | 0.00 | 0.00 | 0.00 | 84 | 1011.8 |
| 20260905071508 | 78 | 141 | 0.0 | 1.0 | 0.00 | 0.00 | 0.00 | 85 | 1011.7 |
| 20260905070006 | 79 | 141 | 0.0 | 2.0 | 0.00 | 0.00 | 0.00 | 85 | 1011.9 |
| 20260905064506 | 79 | 122 | 0.0 | 2.0 | 0.00 | 0.00 | 0.00 | 83 | 1012.0 |
| 20260905063004 | 79 | 13 | 0.0 | 1.0 | 0.00 | 0.00 | 0.00 | 82 | 1012.0 |
| 20260905061503 | 79 | 13 | 0.0 | 0.0 | 0.00 | 0.00 | 0.00 | 84 | 1012.1 |
| 20260905060003 | 80 | 13 | 0.0 | 0.0 | 0.00 | 0.00 | 0.00 | 84 | 1012.1 |
| 20260905054708 | 80 | 13 | 0.0 | 1.0 | 0.00 | 0.00 | 0.00 | 84 | 1011.9 |
| 20260905053058 | 80 | 13 | 0.0 | 2.0 | 0.00 | 0.00 | 0.00 | 83 | 1011.9 |
| 20260905051554 | 81 | 13 | 1.0 | 3.0 | 0.00 | 0.00 | 0.00 | 79 | 1011.9 |
| 20260905050051 | 82 | 145 | 0.0 | 2.0 | 0.00 | 0.00 | 0.00 | 76 | 1011.9 |
| 20260905044604 | 82 | 345 | 0.0 | 1.0 | 0.00 | 0.00 | 0.00 | 79 | 1011.9 |
| 20260905043054 | 82 | 345 | 1.0 | 4.0 | 0.00 | 0.00 | 0.00 | 77 | 1011.9 |
| 20260905041550 | 83 | 110 | 0.0 | 1.0 | 0.00 | 0.00 | 0.00 | 74 | 1011.9 |
| 20260905040059 | 84 | 103 | 0.0 | 1.0 | 0.00 | 0.00 | 0.00 | 73 | 1011.8 |
| 20260905034600 | 84 | 103 | 0.0 | 1.0 | 0.00 | 0.00 | 0.00 | 72 | 1011.9 |
| 20260905033050 | 86 | 103 | 0.0 | 2.0 | 0.00 | 0.00 | 0.00 | 71 | 1011.7 |
| 20260905031550 | 87 | 103 | 0.0 | 2.0 | 0.00 | 0.00 | 0.00 | 69 | 1011.6 |
| 20260905030048 | 88 | 102 | 0.0 | 3.0 | 0.00 | 0.00 | 0.00 | 66 | 1011.5 |
| 20260905024557 | 88 | 160 | 1.0 | 3.0 | 0.00 | 0.00 | 0.00 | 63 | 1011.3 |
| 20260905023047 | 89 | 166 | 0.0 | 3.0 | 0.00 | 0.00 | 0.00 | 66 | 1011.1 |
| 20260905021546 | 88 | 166 | 0.0 | 2.0 | 0.00 | 0.00 | 0.00 | 66 | 1011.0 |
| 20260905020053 | 89 | 166 | 0.0 | 3.0 | 0.00 | 0.00 | 0.00 | 63 | 1010.8 |
| 20260905014545 | 90 | 193 | 0.0 | 3.0 | 0.00 | 0.00 | 0.00 | 62 | 1010.7 |
| 20260905013045 | 91 | 246 | 1.0 | 3.0 | 0.00 | 0.00 | 0.00 | 59 | 1010.5 |
| 20260905011544 | 92 | 185 | 2.0 | 4.0 | 0.00 | 0.00 | 0.00 | 56 | 1010.4 |
| 20260905010044 | 94 | 162 | 1.0 | 5.0 | 0.00 | 0.00 | 0.00 | 53 | 1010.2 |
| 20260905004543 | 94 | 177 | 0.0 | 4.0 | 0.00 | 0.00 | 0.00 | 52 | 1010.2 |
| 20260905003043 | 95 | 185 | 2.0 | 4.0 | 0.00 | 0.00 | 0.00 | 50 | 1010.3 |
| 20260905001543 | 97 | 173 | 1.0 | 5.0 | 0.00 | 0.00 | 0.00 | 47 | 1010.3 |
| 20260905000042 | 98 | 159 | 3.0 | 5.0 | 0.00 | 0.00 | 0.00 | 46 | 1010.3 |
| 20260904234540 | 98 | 122 | 2.0 | 6.0 | 0.00 | 0.00 | 0.00 | 45 | 1010.4 |
| 20260904233040 | 98 | 160 | 3.0 | 8.0 | 0.00 | 0.00 | 0.00 | 45 | 1010.4 |
| 20260904231557 | 99 | 180 | 2.0 | 10.0 | 0.00 | 0.00 | 0.00 | 44 | 1010.5 |
| 20260904230039 | 98 | 167 | 3.0 | 9.0 | 0.00 | 0.00 | 0.00 | 44 | 1010.6 |
| 20260904224538 | 99 | 183 | 5.0 | 11.0 | 0.00 | 0.00 | 0.00 | 44 | 1010.5 |
| 20260904223039 | 99 | 162 | 5.0 | 12.0 | 0.00 | 0.00 | 0.00 | 44 | 1010.5 |
| 20260904221545 | 98 | 149 | 5.0 | 10.0 | 0.00 | 0.00 | 0.00 | 43 | 1010.4 |
| 20260904220038 | 98 | 191 | 7.0 | 12.0 | 0.00 | 0.00 | 0.00 | 43 | 1010.6 |
| 20260904214536 | 98 | 174 | 8.0 | 14.0 | 0.00 | 0.00 | 0.00 | 43 | 1010.6 |
| 20260904213036 | 98 | 143 | 5.0 | 12.0 | 0.00 | 0.00 | 0.00 | 44 | 1010.6 |
| 20260904211534 | 98 | 167 | 4.0 | 11.0 | 0.00 | 0.00 | 0.00 | 44 | 1010.9 |
| 20260904210036 | 97 | 175 | 3.0 | 12.0 | 0.00 | 0.00 | 0.00 | 46 | 1010.9 |
| 20260904204534 | 98 | 212 | 7.0 | 12.0 | 0.00 | 0.00 | 0.00 | 44 | 1011.0 |
| 20260904203040 | 97 | 168 | 8.0 | 14.0 | 0.00 | 0.00 | 0.00 | 46 | 1011.2 |
| 20260904201530 | 97 | 196 | 6.0 | 12.0 | 0.00 | 0.00 | 0.00 | 45 | 1011.3 |
| 20260904200050 | 96 | 146 | 2.0 | 10.0 | 0.00 | 0.00 | 0.00 | 46 | 1011.5 |
| 20260904194532 | 97 | 161 | 5.0 | 12.0 | 0.00 | 0.00 | 0.00 | 46 | 1011.7 |
| 20260904193027 | 95 | 120 | 5.0 | 13.0 | 0.00 | 0.00 | 0.00 | 47 | 1011.8 |
| 20260904191532 | 95 | 168 | 5.0 | 14.0 | 0.00 | 0.00 | 0.00 | 48 | 1011.9 |
| 20260904190024 | 94 | 113 | 8.0 | 14.0 | 0.00 | 0.00 | 0.00 | 48 | 1012.0 |
| 20260904184521 | 94 | 184 | 7.0 | 15.0 | 0.00 | 0.00 | 0.00 | 48 | 1012.2 |
| 20260904183019 | 94 | 218 | 5.0 | 12.0 | 0.00 | 0.00 | 0.00 | 50 | 1012.1 |
| 20260904181520 | 92 | 252 | 8.0 | 17.0 | 0.00 | 0.00 | 0.00 | 51 | 1012.2 |
| 20260904180026 | 92 | 167 | 10.0 | 17.0 | 0.00 | 0.00 | 0.00 | 50 | 1012.3 |
| 20260904174517 | 93 | 183 | 7.0 | 15.0 | 0.00 | 0.00 | 0.00 | 51 | 1012.5 |
| 20260904173016 | 92 | 145 | 6.0 | 12.0 | 0.00 | 0.00 | 0.00 | 53 | 1012.6 |
| 20260904171512 | 90 | 203 | 8.0 | 22.0 | 0.00 | 0.00 | 0.00 | 54 | 1012.6 |
| 20260904170012 | 91 | 136 | 7.0 | 17.0 | 0.00 | 0.00 | 0.00 | 56 | 1012.8 |
| 20260904164510 | 91 | 135 | 7.0 | 15.0 | 0.00 | 0.00 | 0.00 | 55 | 1013.0 |
| 20260904163016 | 90 | 147 | 6.0 | 12.0 | 0.00 | 0.00 | 0.00 | 57 | 1012.9 |
| 20260904161506 | 89 | 214 | 6.0 | 13.0 | 0.00 | 0.00 | 0.00 | 59 | 1012.9 |
| 20260904160004 | 88 | 139 | 6.0 | 12.0 | 0.00 | 0.00 | 0.00 | 60 | 1012.9 |
| 20260904154613 | 87 | 208 | 8.0 | 16.0 | 0.00 | 0.00 | 0.00 | 63 | 1013.0 |
| 20260904154500 | 87 | 233 | 8.0 | 16.0 | 0.00 | 0.00 | 0.00 | 62 | 1013.0 |
| 20260904153100 | 86 | 225 | 5.0 | 14.0 | 0.00 | 0.00 | 0.00 | 64 | 1013.1 |
| 20260904151558 | 85 | 220 | 5.0 | 17.0 | 0.00 | 0.00 | 0.00 | 65 | 1013.1 |